Location: Hokitika
(42.7170°S, 170.9670°E)
Time: 13:35:18
(UTC+12:00)

ISS - Visible Passes

Search period start: 20 July 2024 00:00
Search period end: 30 July 2024 00:00
Orbit: 409 x 423 km, 51.6° (Epoch: 19 July)

Date Brightness Start Highest point End Pass type
(mag) Time Alt. Az. Time Alt. Az. Time Alt. Az.
20 Jul -2.9 05:49:12 50° E 05:49:12 50° E 05:52:00 10° ESE visible
20 Jul -2.5 07:22:30 10° W 07:25:32 28° SSW 07:28:36 10° SE visible
21 Jul -0.3 05:03:07 12° ESE 05:03:07 12° ESE 05:03:25 10° ESE visible
21 Jul -3.0 06:36:02 30° WSW 06:36:57 37° SSW 06:40:14 10° SE visible
22 Jul -2.2 05:49:46 31° SSE 05:49:46 31° SSE 05:51:49 10° SE visible
22 Jul -2.0 07:23:03 10° WSW 07:25:43 20° S 07:28:23 10° SE visible
23 Jul -2.3 06:36:15 22° SW 06:36:59 23° SSW 06:39:51 10° SE visible
24 Jul -1.6 05:49:43 21° SSE 05:49:43 21° SSE 05:51:20 10° SE visible
25 Jul -1.9 06:36:00 17° SSW 06:36:57 19° S 06:39:30 10° SE visible
26 Jul -1.4 05:49:18 17° SSE 05:49:18 17° SSE 05:50:47 10° SE visible
27 Jul -1.7 06:35:25 15° SSW 06:36:49 19° S 06:39:21 10° SE visible
28 Jul -1.4 05:48:36 17° SSE 05:48:36 17° SSE 05:50:22 10° SE visible
29 Jul -1.9 06:34:38 16° SSW 06:36:27 23° SSE 06:39:19 10° ESE visible
